FW4407 Weather Reports


Display with metric or nautical units.
time (UTC)temp
F
wind
direction
speed
MPH
gust
MPH
rain 1hr
in
rain 24hr
in
rain mn
in
humidity
%
barometer
mb
20260504050542 54 0.0 0.0 0.00 0.02 0.00 59 1017.4
20260504045526 52 0.0 0.0 0.00 0.02 0.00 62 1017.3
20260504044532 50 0.0 0.0 0.00 0.02 0.00 63 1017.2
20260504043519 49 0.0 0.0 0.00 0.03 0.00 65 1017.1
20260504042525 48 0.0 0.0 0.00 0.03 0.00 69 1017.2
20260504041550 47 0.0 0.0 0.00 0.03 0.00 68 1017.1
20260504040517 47 0.0 0.0 0.00 0.03 0.00 72 1016.9
20260504035523 47 0.0 0.0 0.00 0.05 0.00 71 1016.8
20260504034527 47 0.0 0.0 0.00 0.05 0.00 70 1016.9
20260504033515 47 0.0 0.0 0.00 0.05 0.00 70 1016.8
20260504032520 48 0.0 0.0 0.00 0.05 0.00 69 1016.9
20260504031525 48 0.0 0.0 0.00 0.05 0.00 68 1016.9
20260504030531 48 0.0 0.0 0.00 0.05 0.00 67 1016.9
20260504025518 48 0.0 0.0 0.00 0.05 0.00 66 1016.8
20260504024523 48 175 0.0 2.0 0.00 0.05 0.00 66 1016.7
20260504023528 48 140 0.0 5.0 0.00 0.05 0.00 68 1016.7
20260504022517 48 0.0 0.0 0.00 0.06 0.00 68 1016.8
20260504021522 47 0.0 0.0 0.00 0.06 0.00 68 1016.8
20260504020527 47 0.0 0.0 0.00 0.06 0.00 68 1016.8
20260504015532 47 0.0 0.0 0.00 0.06 0.00 68 1016.9
20260504014520 47 0.0 0.0 0.00 0.06 0.00 68 1016.9
20260504013524 47 0.0 0.0 0.00 0.06 0.00 68 1016.8
20260504012529 48 0.0 0.0 0.00 0.07 0.00 68 1016.8
20260504011518 48 0.0 0.0 0.00 0.07 0.00 67 1016.9
20260504010522 48 0.0 0.0 0.00 0.07 0.00 67 1016.8
20260504005527 48 0.0 0.0 0.00 0.07 0.00 66 1016.8
20260504004515 48 0.0 0.0 0.00 0.07 0.00 66 1016.8
20260504003521 48 0.0 0.0 0.00 0.07 0.00 65 1016.9
20260504002525 48 0.0 0.0 0.00 0.07 0.00 64 1016.7
20260504001550 48 0.0 0.0 0.00 0.07 0.00 65 1016.7
20260504000538 48 0.0 0.0 0.00 0.07 0.00 65 1016.8
20260503235523 48 228 0.0 2.0 0.00 0.07 0.00 65 1016.8
20260503234529 48 148 0.0 2.0 0.00 0.07 0.00 65 1016.8
20260503233516 49 211 0.0 2.0 0.00 0.07 0.00 65 1016.8
20260503232522 49 0.0 0.0 0.00 0.07 0.00 65 1016.8
20260503231526 49 0.0 0.0 0.00 0.07 0.00 64 1016.8
20260503230531 48 10 2.0 8.0 0.00 0.07 0.00 64 1016.8
20260503225519 48 0.0 0.0 0.00 0.07 0.00 65 1016.8
20260503224544 49 0.0 0.0 0.00 0.07 0.00 65 1016.8
20260503223530 49 0.0 0.0 0.00 0.07 0.00 65 1016.8
20260503222517 49 0.0 0.0 0.00 0.09 0.00 64 1016.8
20260503221523 49 208 0.0 2.0 0.00 0.09 0.00 64 1016.9
20260503220527 49 0.0 0.0 0.00 0.09 0.00 65 1016.9
20260503215525 50 0.0 0.0 0.00 0.09 0.00 64 1016.9
20260503214550 50 0.0 0.0 0.00 0.09 0.00 63 1016.9
20260503213518 50 18 0.0 5.0 0.00 0.09 0.00 62 1016.9
20260503212523 50 0.0 0.0 0.00 0.09 0.00 63 1016.8
20260503211528 50 0.0 0.0 0.00 0.09 0.00 63 1016.9
20260503210516 51 0.0 0.0 0.00 0.09 0.00 61 1016.9
20260503205522 51 2 1.0 8.0 0.00 0.09 0.09 61 1016.9
20260503204526 51 2 4.0 13.0 0.00 0.09 0.09 61 1016.9
20260503203531 51 0.0 0.0 0.00 0.09 0.09 61 1016.9
20260503202519 51 280 2.0 8.0 0.00 0.09 0.09 60 1017.0
20260503201524 51 301 1.0 5.0 0.00 0.09 0.09 60 1017.0
20260503200530 51 289 1.0 5.0 0.00 0.09 0.09 60 1016.9
20260503195517 52 305 1.0 8.0 0.00 0.09 0.09 59 1017.1
20260503194522 52 330 0.0 5.0 0.00 0.09 0.09 59 1016.9
20260503193527 52 336 1.0 5.0 0.00 0.09 0.09 58 1016.9
20260503192515 52 343 1.0 5.0 0.00 0.09 0.09 57 1016.8
20260503191520 52 2 2.0 13.0 0.00 0.09 0.09 58 1016.9
20260503190525 52 3 2.0 8.0 0.00 0.09 0.09 58 1016.8
20260503185610 52 336 0.0 5.0 0.00 0.09 0.09 58 1016.7
20260503184518 53 9 2.0 8.0 0.00 0.09 0.09 57 1016.7
20260503183543 53 286 0.0 2.0 0.00 0.09 0.09 57 1016.5
20260503182528 53 9 4.0 10.0 0.00 0.09 0.09 56 1016.3
20260503181516 53 6 2.0 10.0 0.00 0.09 0.09 55 1016.1
20260503180521 53 353 3.0 8.0 0.00 0.09 0.09 55 1016.0
20260503175526 53 18 5.0 23.0 0.00 0.09 0.09 55 1015.9
20260503174531 53 7 8.0 17.0 0.00 0.09 0.09 54 1015.8
20260503173539 53 8 6.0 13.0 0.00 0.09 0.09 56 1015.8
20260503172524 53 15 8.0 17.0 0.00 0.09 0.09 55 1015.7
20260503171609 54 13 9.0 17.0 0.00 0.09 0.09 54 1015.6
20260503170517 54 11 9.0 17.0 0.00 0.09 0.09 54 1015.6
20260503150526 56 18 7.0 17.0 0.00 0.09 0.09 51 1015.0
20260503130538 56 19 13.0 25.0 0.00 0.09 0.09 51 1014.5
20260503110527 52 22 7.0 15.0 0.00 0.09 0.09 62 1015.4
20260503081527 54 18 11.0 28.0 0.00 0.09 0.09 56 1015.0
20260503080535 53 37 5.0 13.0 0.00 0.09 0.09 58 1014.7
20260503072518 51 27 7.0 17.0 0.00 0.09 0.09 61 1014.5
20260503071523 49 16 6.0 13.0 0.00 0.09 0.09 64 1014.5
20260503070528 48 17 6.0 13.0 0.00 0.09 0.09 68 1014.7